When you browse on this site, cookies collect data to enhance your experience and personalize the content and advertising you see.
Visit our Privacy Policy to learn more. By continuing to use the site, you agree to this use of cookies and data.
  • In United Kingdom
  • List of Countries
  • For 7 days
  • Water Temperature
  • Satellite Maps
  • Weather Map
  • Weather Widgets
  • user-avatar
    Login

    Hourly Weather Pivni

    Today, 19 June, Wednesday

    Time Temperature Precipitation Wind Pressure Humidity
    00:00 +22°C° 0.1 mm 4 mps 753 mmHg 84%
    01:00 +22°C° 0.1 mm 4 mps 753 mmHg 86%
    02:00 +21°C° 0.1 mm 4 mps 753 mmHg 87%
    03:00 +21°C° 0 mm 4 mps 753 mmHg 87%
    04:00 +21°C° 0 mm 4 mps 753 mmHg 87%
    05:00 +21°C° 0 mm 4 mps 753 mmHg 87%
    06:00 +23°C° 0 mm 4 mps 753 mmHg 81%
    07:00 +25°C° 0 mm 4 mps 754 mmHg 75%
    08:00 +26°C° 0 mm 4 mps 754 mmHg 69%
    09:00 +28°C° 0 mm 4 mps 754 mmHg 63%
    10:00 +29°C° 0 mm 4 mps 754 mmHg 57%
    11:00 +30°C° 0 mm 4 mps 753 mmHg 51%
    12:00 +30°C° 0 mm 4 mps 753 mmHg 49%
    13:00 +32°C° 0 mm 4 mps 753 mmHg 47%
    14:00 +32°C° 0 mm 4 mps 753 mmHg 45%
    15:00 +32°C° 0 mm 4 mps 753 mmHg 48%
    16:00 +30°C° 0 mm 5 mps 752 mmHg 51%
    17:00 +30°C° 0 mm 5 mps 752 mmHg 54%
    18:00 +28°C° 0 mm 4 mps 752 mmHg 60%
    19:00 +27°C° 0 mm 4 mps 752 mmHg 67%
    20:00 +25°C° 0 mm 4 mps 752 mmHg 74%
    21:00 +24°C° 0 mm 3 mps 752 mmHg 76%
    22:00 +24°C° 0 mm 3 mps 752 mmHg 79%
    23:00 +22°C° 0 mm 3 mps 753 mmHg 81%

    Tomorrow, 20 June, Thursday

    Time Temperature Precipitation Wind Pressure Humidity
    00:00 +22°C° 0 mm 3 mps 753 mmHg 83%
    01:00 +21°C° 0 mm 3 mps 752 mmHg 85%
    02:00 +21°C° 0 mm 3 mps 752 mmHg 86%
    03:00 +21°C° 0 mm 3 mps 752 mmHg 86%
    04:00 +21°C° 0 mm 3 mps 752 mmHg 86%
    05:00 +21°C° 0 mm 4 mps 752 mmHg 86%
    06:00 +23°C° 0 mm 4 mps 752 mmHg 80%
    07:00 +26°C° 0 mm 4 mps 752 mmHg 73%
    08:00 +27°C° 0 mm 4 mps 752 mmHg 67%
    09:00 +29°C° 0.1 mm 4 mps 752 mmHg 61%
    10:00 +30°C° 0.1 mm 4 mps 752 mmHg 55%
    11:00 +32°C° 0.1 mm 4 mps 752 mmHg 49%
    12:00 +31°C° 0 mm 3 mps 752 mmHg 48%
    13:00 +31°C° 0 mm 3 mps 752 mmHg 47%
    14:00 +31°C° 0 mm 3 mps 752 mmHg 46%
    15:00 +31°C° 0 mm 3 mps 752 mmHg 48%
    16:00 +32°C° 0 mm 4 mps 751 mmHg 50%
    17:00 +32°C° 0 mm 4 mps 751 mmHg 52%
    18:00 +29°C° 0 mm 4 mps 752 mmHg 57%
    19:00 +27°C° 0 mm 3 mps 752 mmHg 63%
    20:00 +26°C° 0 mm 3 mps 752 mmHg 68%
    21:00 +25°C° 0 mm 3 mps 752 mmHg 71%
    22:00 +24°C° 0 mm 3 mps 752 mmHg 74%
    23:00 +24°C° 0 mm 3 mps 753 mmHg 76%

    Day after tomorrow, 21 June, Friday

    Time Temperature Precipitation Wind Pressure Humidity
    00:00 +22°C° 0 mm 3 mps 753 mmHg 76%
    01:00 +22°C° 0 mm 3 mps 753 mmHg 76%
    02:00 +22°C° 0 mm 3 mps 753 mmHg 76%
    03:00 +22°C° 0 mm 3 mps 753 mmHg 76%
    04:00 +21°C° 0 mm 3 mps 753 mmHg 75%
    05:00 +21°C° 0 mm 3 mps 753 mmHg 75%
    06:00 +24°C° 0 mm 3 mps 753 mmHg 69%
    07:00 +26°C° 0 mm 4 mps 754 mmHg 62%
    08:00 +28°C° 0 mm 4 mps 754 mmHg 56%
    09:00 +29°C° 0 mm 4 mps 754 mmHg 51%
    10:00 +30°C° 0 mm 4 mps 754 mmHg 46%
    11:00 +33°C° 0 mm 5 mps 754 mmHg 40%
    12:00 +33°C° 0 mm 4 mps 753 mmHg 38%
    13:00 +34°C° 0 mm 4 mps 753 mmHg 35%
    14:00 +34°C° 0 mm 4 mps 753 mmHg 32%
    15:00 +34°C° 0 mm 4 mps 753 mmHg 33%
    16:00 +34°C° 0 mm 3 mps 753 mmHg 34%
    17:00 +34°C° 0 mm 3 mps 752 mmHg 35%
    18:00 +31°C° 0 mm 3 mps 753 mmHg 41%
    19:00 +29°C° 0 mm 3 mps 753 mmHg 46%
    20:00 +27°C° 0 mm 3 mps 753 mmHg 52%
    21:00 +26°C° 0 mm 3 mps 753 mmHg 54%
    22:00 +25°C° 0 mm 3 mps 753 mmHg 57%
    23:00 +25°C° 0 mm 3 mps 754 mmHg 59%

    22 June, Saturday

    Time Temperature Precipitation Wind Pressure Humidity
    00:00 +25°C° 0 mm 3 mps 754 mmHg 59%
    01:00 +24°C° 0 mm 3 mps 753 mmHg 59%
    02:00 +24°C° 0 mm 3 mps 753 mmHg 58%
    03:00 +24°C° 0 mm 3 mps 753 mmHg 67%
    04:00 +24°C° 0 mm 3 mps 753 mmHg 68%
    05:00 +24°C° 0 mm 3 mps 753 mmHg 70%
    06:00 +25°C° 0 mm 3 mps 754 mmHg 65%
    07:00 +27°C° 0 mm 3 mps 754 mmHg 60%
    08:00 +29°C° 0 mm 3 mps 754 mmHg 56%
    09:00 +30°C° 0 mm 3 mps 754 mmHg 50%
    10:00 +33°C° 0 mm 3 mps 754 mmHg 44%
    11:00 +34°C° 0 mm 4 mps 754 mmHg 38%
    12:00 +34°C° 0 mm 3 mps 754 mmHg 38%
    13:00 +34°C° 0 mm 3 mps 754 mmHg 37%
    14:00 +34°C° 0 mm 2 mps 754 mmHg 37%
    15:00 +34°C° 0 mm 2 mps 753 mmHg 36%
    16:00 +34°C° 0 mm 2 mps 753 mmHg 36%
    17:00 +34°C° 0 mm 2 mps 753 mmHg 35%
    18:00 +31°C° 0 mm 2 mps 753 mmHg 39%
    19:00 +30°C° 0 mm 2 mps 753 mmHg 44%
    20:00 +28°C° 0 mm 3 mps 753 mmHg 49%
    21:00 +27°C° 0 mm 3 mps 753 mmHg 50%
    22:00 +26°C° 0 mm 3 mps 753 mmHg 51%
    23:00 +25°C° 0 mm 3 mps 754 mmHg 52%

    23 June, Sunday

    Time Temperature Precipitation Wind Pressure Humidity
    00:00 +25°C° 0 mm 3 mps 754 mmHg 53%
    01:00 +24°C° 0 mm 3 mps 754 mmHg 55%
    02:00 +24°C° 0 mm 3 mps 754 mmHg 56%
    03:00 +24°C° 0 mm 3 mps 754 mmHg 58%
    04:00 +24°C° 0 mm 3 mps 754 mmHg 60%
    05:00 +24°C° 0 mm 3 mps 754 mmHg 62%
    06:00 +26°C° 0 mm 3 mps 754 mmHg 58%
    07:00 +28°C° 0 mm 3 mps 754 mmHg 53%
    08:00 +30°C° 0 mm 3 mps 754 mmHg 49%
    09:00 +31°C° 0 mm 3 mps 754 mmHg 43%
    10:00 +34°C° 0 mm 3 mps 754 mmHg 37%
    11:00 +35°C° 0 mm 3 mps 754 mmHg 31%
    12:00 +35°C° 0 mm 3 mps 754 mmHg 30%
    13:00 +35°C° 0 mm 3 mps 753 mmHg 30%
    14:00 +36°C° 0 mm 3 mps 753 mmHg 29%
    15:00 +34°C° 0 mm 3 mps 753 mmHg 34%
    16:00 +32°C° 0 mm 2 mps 753 mmHg 39%
    17:00 +31°C° 0 mm 2 mps 752 mmHg 44%
    18:00 +30°C° 0 mm 3 mps 752 mmHg 49%
    19:00 +28°C° 0 mm 3 mps 752 mmHg 54%
    20:00 +27°C° 0 mm 4 mps 752 mmHg 59%
    21:00 +26°C° 0 mm 3 mps 752 mmHg 61%
    22:00 +26°C° 0 mm 3 mps 752 mmHg 63%
    23:00 +25°C° 0 mm 3 mps 752 mmHg 64%

    24 June, Monday

    Time Temperature Precipitation Wind Pressure Humidity
    00:00 +25°C° 0 mm 3 mps 752 mmHg 64%
    01:00 +25°C° 0 mm 3 mps 752 mmHg 63%
    02:00 +24°C° 0 mm 3 mps 752 mmHg 63%
    03:00 +25°C° 0 mm 3 mps 752 mmHg 63%
    04:00 +25°C° 0 mm 3 mps 752 mmHg 63%
    05:00 +25°C° 0 mm 2 mps 752 mmHg 63%
    06:00 +26°C° 0.1 mm 3 mps 752 mmHg 62%
    07:00 +27°C° 0.1 mm 3 mps 752 mmHg 60%
    08:00 +28°C° 0.1 mm 4 mps 753 mmHg 59%
    09:00 +29°C° 0 mm 3 mps 753 mmHg 58%
    10:00 +29°C° 0 mm 3 mps 753 mmHg 58%
    11:00 +30°C° 0 mm 3 mps 753 mmHg 57%
    12:00 +29°C° 3.1 mm 3 mps 753 mmHg 64%
    13:00 +27°C° 3.1 mm 4 mps 752 mmHg 72%
    14:00 +25°C° 3.1 mm 4 mps 752 mmHg 79%
    15:00 +25°C° 2.6 mm 3 mps 752 mmHg 81%
    16:00 +24°C° 2.6 mm 3 mps 752 mmHg 82%
    17:00 +24°C° 2.6 mm 3 mps 752 mmHg 83%
    18:00 +22°C° 0.1 mm 3 mps 752 mmHg 84%
    19:00 +22°C° 0.1 mm 3 mps 752 mmHg 84%
    20:00 +22°C° 0.1 mm 3 mps 753 mmHg 85%
    21:00 +21°C° 0.3 mm 3 mps 753 mmHg 87%
    22:00 +21°C° 0.3 mm 3 mps 753 mmHg 89%
    23:00 +20°C° 0.3 mm 2 mps 753 mmHg 91%
    Show more